Погода Ростов Великий

Хотите узнать прогноз погоды Ростов Великий? Тогда Вам сюда: Погода Ростов Великий

Поиск расширенной информации на нашем сайте:

Полезная информация:

Новости сайта



14.11.2019
Обновлён Долгосрочный прогноз погоды по России и другим странам хСССР на ноябрь-декабрь 2019 года.
Опубликованы прогностические карты: Предварительный прогноз на декабрь 2019 года, Предварительный прогноз на январь 2020 года, Предварительная схема синоптических процессов на декабрь 2019 г..

11.11.2019
Обновлены Долгосрочный прогноз погоды по России и другим странам хСССР на ноябрь-декабрь 2019 года и Предварительный прогноз на зиму 2019/2020 годов

04.11.2019
Опубликован Долгосрочный прогноз погоды по России и другим странам хСССР на ноябрь 2019 года
Сравнение прогнозируемой аномалии приземной температуры воздуха на ноябрь 2019 года по разным моделям
Предварительный прогноз на зиму 2019/2020 года




Погода Ростов Великий - сегодня

Время (UTC), дата Ветер
(°,м/с) 
Видим.   Явления Облачность Т
(°С)
Тd
(°С)
f(%) Тe
(°С)
Pmin
(гПа)
dP
(гПа)
Po
(мм)
O2
(г/м3)
Тmin Tmax R s Состояние
почвы
00 20.11.19 130 (ЮВ) 10 км    10/10 600 м 
[Sc]
+1.9 +0.8 92 1039.9  1.4  770  308           
03 20.11.19 120 (ЮВ) 10 км    10/10 600 м кучево-дожд. 
[Cb cap]
+0.7 -1.1 88 -1  1041.6  1.7  772  310  +0.9         
06 20.11.19 120 (ЮВ) 10 км    10/10 600 м 
[Sc]
-0.9 -2.8 87 -3  1043.5  1.7  773  313  -0.9         
09 20.11.19 120 (ЮВ) 10 км    9/9 600 м 
[Sc]
-1.5 -5.2 76 -4  1045.1  1.6  774  314           
12 20.11.19 140 (ЮВ) 10 км    1/0 верхняя 
[Ci fib]
-1.5 -9.8 53 -3  1046.1  0.9  775  315           
15 20.11.19 140 (ЮВ) 10 км    ясно 
-4.8 -9.8 68 -6  1047.8  1.6  776  319    -0.9       
18 20.11.19 170 (Ю) 10 км    ясно 
-5.9 -12.2 61 -9  1048.5  0.6  776  321           
21 20.11.19 170 (Ю) 10 км    ясно 
-7.1 -12.5 65 -10  1049.3  0.7  777  323           
00 21.11.19 170 (Ю) 10 км    ясно 
-8 -12.6 69 -11  1049.6  0.3  777  324           
03 21.11.19 180 (Ю) 10 км    ясно 
-9.1 -12.5 76 -12  1050  0.3  777  325  -9.1         
06 21.11.19 180 (Ю) 10 км    ясно 
-9.2 -12.4 78 -11  1050.4  0.4  778  325  -9.4         
09 21.11.19 180 (Ю) 10 км    ясно 
-5.5 -11.5 63 -7  1050  0.1  777  321           
12 21.11.19 170 (Ю) 10 км    ясно 
-4.3 -11.3 58 -4  1048.8  -1.1  777  319           
15 21.11.19 180 (Ю) 10 км    ясно 
-6.4 -10.5 73 -8  1048.6  -0.3  776  321    -3.9       
18 21.11.19 тихо ()   10 км    ясно 
-9 -11.4 83 -9  1048.8  776  325           
21 21.11.19 тихо ()   10 км    ясно 
-10.1 -11.3 91 -10  1048.9  776  326           
00 22.11.19 тихо ()   10 км    ясно 
-10.7 -11.7 92 -11  1048.4  -0.5  776  327           
03 22.11.19 тихо ()   10 км    ясно 
-11.2 -12.5 90 -11  1047.9  -0.5  776  327  -11.6         
06 22.11.19 210 (ЮЗ) 10 км    ясно 
-10.7 -12.5 87 -11  1048.2  0.3  776  327           
09 22.11.19 220 (ЮЗ) 10 км    ясно 
-5.7 -10 72 -7  1047.9  776  320           
12 22.11.19 тихо ()   10 км    ясно 
-2.9 -11.2 53 -3               
15 22.11.19 190 (Ю) 10 км    ясно 
-7.5 -10.9 77 -7  1045.9  774  322           
18 22.11.19 200 (Ю) 10 км    ясно 
-9.4 -11.7 83 -9  1046.2  0.3  775  324           
21 22.11.19 тихо ()   10 км    ясно 
-10.8 -12.6 87 -11  1046.1  0.3  774  326           
00 23.11.19 тихо ()   10 км    ясно 
-10.9 -12.8 86 -11  1045.1  -1.1  774  326           
Время (UTC), дата Ветер
(°,м/с) 
Видим.   Явления Облачность Т
(°С)
Тd
(°С)
f(%) Тe
(°С)
Pmin
(гПа)
dP
(гПа)
Po
(мм)
O2
(г/м3)
Тmin Tmax R s Состояние
почвы

Для получения пояснительной информации подведите курсор к названию столбца.

ПОГОДА Ростов Великий - архив

Всё, что Вы хотите узнать о погоде Ростов Великий - удобно и подробно!

Выберите нужную дату (начиная с 1 января 2019* года) и нажмите кнопку "Найти".
Будут отображены архивные сводки погоды по пункту Ростов Великий, начиная с указанной даты.


Отображать данные в формате CSV (для использования в таблицах Excel)


Внимание! Наш архив погоды предназначен исключительно для личного некоммерческого использования в познавательных целях. Если Вам необходимы официальные справки о состоянии погоды (для производственных, юридических, коммерческих и т.п. целей), обращайтесь в органы Росгидромета.

*Примечание: данная дата относится к архиву по метеостанциям СССР (Россия, СНГ, Балтия).
Архив по метеостанциям Зарубежной Европы и Азии (кроме Китая) хранится 10 дней, по другим регионам земного шара (Китай, Африка, Америка, Австралия, Океания) - 1 день.

Ростов Великий - район местоположения метеостанции


Название, широта, долгота, высота метеостанции:
Ростов Великий 57.2°ш. 39.4°д. 101 м над ур. моря [Российская Федерация]

Дополнительная информация

В oтличие oт бoльшинства пoгoдных сайтoв мы публикуем пoдрoбную метеoинфoрмацию в детальнoм прoфессиoнальнoм фoрмате.

Характеристики температуры и влажнoсти вoздуха измеряются на высoте 2 м в тени вдали oт зданий и деревьев.
Скoрoсть ветра измеряется на высoте 10 м (на урoвне рoста челoвека скoрoсть ветра ниже в 1.5-2 раза). Если метеoстанция нахoдится в гoрoде или в лесу, тo скoрoсть ветра занижена на 2-4 м/с пo сравнению с oткрытым местoм. Скoрoсть ветра над акватoриями крупных рек и oзёр, а также на вершинах хoлмoв на 2-5 м/с выше, чем в oбычных услoвиях.
Атмoсфернoе давление в разных тoчках местнoсти мoжет значительнo oтличаться oт давления на метеoстанции, в зависимoсти oт услoвий рельефа (при пoдъёме на 10 м давление пoнижается примернo на 1 мм рт.ст.).